Weather in Zadubrovskiy

Russia / Kemerovo Oblast     54°25′54″N   86°36′44″E
temp.,
°C
wind,
m/s
gust,
m/s
humid.,
%
clouds,
%
prec.,
mm/h
press.,
hPa
HPBL,
m
17 may, tue
tue1701:00+16ssw2252100 0.0 101212
04:00+15sse3359100 0.0 101130
07:00+16se236339 0.0 1012121
10:00+21s364899 0.0 1011769
13:00+26sw782993 0.0 10093150
16:00+26sw773146 0.0 10092555
19:00+25ssw583354 0.0 10081519
22:00+19s4124861 0.0 1008224
18 may, wed
wed1801:00+20ssw6164187 0.0 1008368
04:00+20ssw5134144 0.0 1008365
07:00+18ssw2754100 0.2 1010306
10:00+23w3542100 0.0 1011684
13:00+26w4632100 0.0 10101837
16:00+27w6830100 0.0 10102454
19:00+25nw3537100 0.0 1011216
22:00+19nne345299 0.0 101253
19 may, thu
thu1901:00+18e3558100 0.0 101174
04:00+16ese366383 0.0 100995
07:00+18se3860100 0.0 1007202
10:00+24sse6842100 0.0 1006503
13:00+28sw71031100 0.0 10051660
16:00+26ssw61238100 0.0 10041769
19:00+19wsw7137994 2.9 1007765
22:00+17s33707 0.6 100936
20 may, fri
fri2001:00+15w81447100 0.6 1011713
04:00+12sw613615 0.0 1013488
07:00+13sw512569 0.0 1015629
10:00+18wsw7103875 0.0 10161947
13:00+20wsw7103097 0.0 10163168
16:00+21w79275 0.0 10152752
19:00+21sw683324 0.0 10141835
22:00+16s4744100 0.0 1015101
21 may, sat
sat2101:00+13ssw3450100 0.0 101551
04:00+11s225398 0.0 101414
07:00+13se255733 0.0 1014131
10:00+20se45375 0.0 1012562
13:00+24se45280 0.0 10091106
16:00+27ese46240 0.0 10061266
19:00+27ese36305 0.0 1004315
22:00+20ene334319 0.0 100226